RH
56 54 51 50 48 47 47 46 47 45 43 42 39 37 35 34 34 34 35 36 38 39 38 38 39 39 39 40 40 40 40 40 39 37 38 38 36 35 34 33 33 32 33 32 32 32 31 31 31 30 30 30 30 29 28 27 27 26 25 24 23 22 20 20 18 17 17 17 17 17 18 18 19 19 19 20 21 20 20 21 21 22 21 21 20 20 20 20 21 22 22 22 23 23 23 22 22
44 42 39 36 34 33 33 33 34 34 33 33 30 29 29 29 29 29 30 31 32 33 33 33 33 34 35 35 37 37 37 38 37 37 38 37 35 34 33 32 31 31 31 30 31 30 29 29 28 28 28 28 27 26 25 25 24 23 22 21 20 19 18 17 17 17 17 18 18 19 19 19 19 19 20 21 21 20 20 20 21 22 21 21 20 20 20 21 21 22 23 22 23 24 23 22 24
31 30 28 26 25 24 23 23 23 23 23 23 22 21 22 23 23 25 26 27 27 27 27 28 28 29 29 30 31 31 32 33 33 34 34 32 32 31 30 30 30 29 29 29 28 27 27 26 26 26 26 25 25 24 23 22 22 22 21 19 19 18 18 18 18 18 18 19 19 20 19 19 20 20 20 20 21 20 21 22 22 22 22 22 20 21 20 20 21 22 22 22 23 23 22 23 27
25 24 24 23 22 22 22 22 21 21 21 20 19 19 19 19 20 21 22 23 23 23 24 23 24 24 25 25 25 26 27 27 28 30 29 28 28 28 27 27 27 27 27 26 26 26 25 26 25 23 23 23 24 22 21 22 21 21 20 19 19 19 19 19 19 19 20 20 20 20 20 20 20 21 22 22 21 21 24 25 24 22 22 22 21 20 20 21 22 22 23 23 23 23 23 26 29
24 23 23 23 23 23 23 22 22 22 21 21 20 20 20 20 20 20 20 21 21 21 21 21 22 22 22 22 22 24 24 24 26 25 24 24 24 24 24 23 23 23 23 23 24 23 23 25 22 21 21 20 21 21 21 21 20 20 20 20 19 20 20 19 19 19 19 19 21 22 23 25 24 25 26 24 22 23 26 27 25 23 23 22 21 20 20 22 22 22 23 23 22 23 26 29 30
26 25 24 24 24 23 24 23 23 23 22 22 22 21 22 21 21 21 21 21 21 21 21 22 22 22 22 22 22 22 22 22 24 22 21 21 20 20 20 20 21 21 21 22 21 21 21 21 20 21 21 20 21 20 20 20 21 21 20 20 20 20 19 19 19 19 21 24 28 28 28 29 27 24 24 24 25 27 27 27 25 23 23 21 21 21 22 23 23 23 23 22 22 25 29 30 29
29 28 28 26 26 25 25 25 24 24 23 23 22 22 22 22 22 22 22 22 22 22 23 24 23 24 24 24 23 24 22 22 22 21 20 20 20 20 20 20 21 21 21 20 20 21 20 20 22 21 20 20 20 20 21 20 20 20 20 20 20 20 20 20 20 21 23 27 31 30 28 27 25 22 23 26 29 29 27 25 24 23 23 22 22 22 23 24 23 23 22 24 24 27 31 30 29
32 32 31 30 30 29 29 28 27 26 24 24 23 23 23 23 23 23 23 24 24 24 25 25 24 25 26 25 25 26 23 22 23 22 22 22 21 21 21 21 21 21 21 20 21 21 21 21 21 21 21 20 20 20 20 20 21 21 21 19 20 22 22 22 23 24 24 26 29 26 24 23 22 22 26 30 30 29 25 23 24 25 24 23 24 23 24 25 24 23 24 26 26 29 31 29 30
34 33 33 32 32 32 33 32 30 29 28 27 26 25 25 25 26 26 26 26 27 26 26 26 26 25 27 27 25 25 24 24 24 23 23 22 22 21 21 22 21 21 21 21 21 20 21 20 20 21 19 19 20 21 23 25 25 22 20 20 22 24 24 24 25 26 28 29 28 27 23 22 22 24 28 30 28 26 24 25 26 27 28 29 27 25 27 25 25 25 26 27 27 30 31 31 33
35 35 34 33 33 33 33 33 32 31 30 29 28 27 28 29 29 29 28 28 28 28 27 27 27 27 28 28 26 26 25 25 24 24 23 22 22 22 22 22 21 22 21 21 20 20 20 19 21 20 21 29 27 23 28 29 27 25 24 24 24 24 25 26 25 26 31 31 30 28 23 22 25 26 27 28 27 26 25 27 32 35 36 34 29 28 30 26 25 26 28 26 30 34 33 36 37
36 36 35 35 34 34 33 33 32 31 31 29 28 28 29 30 30 30 29 29 29 29 29 28 28 28 27 27 26 26 26 25 25 25 24 24 23 23 23 22 22 22 21 21 21 21 21 20 21 20 28 45 39 27 27 28 28 26 25 25 23 23 23 27 29 29 32 32 29 25 22 24 27 27 27 27 27 27 29 31 34 36 39 39 35 33 30 26 27 30 28 26 38 40 33 40 38
36 36 35 35 35 35 34 33 32 31 30 29 28 28 29 30 30 30 30 30 29 29 29 28 28 27 27 27 27 26 27 27 26 25 24 24 23 23 23 23 23 22 22 22 21 20 21 22 22 22 28 38 36 29 29 29 27 24 26 26 23 25 28 34 35 35 35 30 25 24 27 30 29 29 29 29 33 34 33 33 34 35 41 44 39 35 32 32 35 35 28 27 40 39 33 40 36
34 34 33 33 33 34 33 33 32 31 30 28 28 28 29 29 30 30 29 29 29 29 28 27 27 27 27 27 27 26 28 27 26 28 26 24 23 23 23 23 23 22 22 21 21 21 21 22 24 26 24 27 32 38 36 29 27 25 24 24 23 27 35 40 37 35 30 25 24 24 26 31 32 30 31 34 38 41 42 44 45 42 39 37 37 38 42 43 40 33 27 29 35 35 36 38 32
31 31 31 30 31 31 31 30 29 29 28 27 27 27 28 28 29 29 29 29 28 28 28 27 27 27 27 28 30 28 28 27 26 28 26 23 23 23 23 23 22 22 22 21 22 21 21 22 24 26 24 29 37 42 35 24 25 26 27 30 32 35 40 39 31 27 26 26 24 23 29 31 31 31 38 41 44 52 56 58 53 45 40 36 39 44 45 43 39 33 31 33 33 37 38 33 30
28 28 28 27 28 28 28 28 27 27 25 25 26 26 27 27 28 27 27 27 27 27 27 27 27 27 27 29 31 29 31 29 26 26 24 23 23 22 22 22 22 21 21 21 22 21 22 22 22 25 28 32 31 29 28 28 30 38 44 40 41 41 36 29 22 23 24 27 24 30 37 31 29 35 47 48 51 59 55 58 53 45 43 40 45 47 44 41 45 41 34 36 34 38 36 29 31
24 24 24 24 25 25 25 25 24 24 23 23 24 24 25 26 26 26 26 26 27 27 26 27 26 27 27 28 29 29 31 27 25 25 23 23 22 22 21 21 21 21 22 21 22 21 21 21 20 22 26 25 21 24 33 39 39 44 41 34 40 36 27 25 25 27 26 30 31 37 41 37 38 40 54 57 55 59 58 63 58 51 52 52 54 50 46 48 54 45 34 43 38 33 33 28 32
19 19 20 21 21 21 21 21 21 21 21 21 22 23 23 24 24 25 25 25 26 26 26 26 26 26 27 27 27 27 27 25 24 24 23 22 21 22 21 21 22 21 22 21 20 20 19 20 19 19 20 18 20 25 30 34 31 31 34 34 34 28 32 37 35 35 32 38 35 37 43 36 37 48 68 76 72 74 68 61 54 57 60 58 57 49 46 46 59 58 45 51 39 29 32 28 31
17 17 18 18 18 18 18 18 18 18 19 19 20 21 21 22 22 22 23 24 24 25 25 25 24 25 25 24 24 24 24 24 24 22 22 22 21 22 21 22 21 20 20 19 19 18 18 18 18 18 17 18 21 22 22 22 19 23 31 27 27 39 55 59 60 51 41 55 47 49 61 44 54 79 86 84 81 73 60 56 57 61 63 58 53 41 35 39 64 72 49 44 36 30 32 28 31
18 17 17 17 17 17 16 16 17 17 17 18 19 20 20 20 20 20 21 21 22 23 23 23 22 22 22 22 22 22 22 22 22 22 22 22 21 21 21 20 19 19 19 18 18 17 17 17 17 17 15 16 18 18 20 20 20 23 19 23 49 66 66 73 80 54 42 69 59 59 79 72 80 81 71 76 69 55 51 58 60 64 67 51 34 29 38 52 61 53 39 40 36 32 30 28 31
19 18 18 17 17 16 16 16 16 17 17 18 19 19 20 19 19 19 19 20 20 21 20 20 20 20 20 20 20 20 21 21 21 21 21 21 20 19 19 18 18 18 17 17 17 15 16 15 15 15 13 14 13 13 16 17 18 19 21 47 72 60 51 61 56 37 44 68 59 62 78 83 85 56 49 69 55 44 50 58 63 66 55 30 28 43 52 54 47 44 52 48 35 33 30 29 32
19 18 18 17 16 16 16 17 17 17 17 17 18 18 19 18 18 19 19 20 19 20 19 19 19 19 19 19 20 20 20 20 19 19 19 19 18 17 17 17 17 16 16 15 15 14 14 14 13 13 12 12 12 12 13 14 23 36 45 54 49 33 38 40 30 30 38 44 41 52 69 77 76 46 38 50 39 42 54 57 56 46 33 26 37 44 45 57 60 62 61 43 35 38 31 31 35
19 18 18 17 17 17 17 17 17 18 17 17 18 18 18 18 19 19 19 20 20 20 20 20 20 19 19 19 20 20 20 18 18 18 17 17 16 16 16 16 16 15 15 14 13 13 13 13 13 13 13 12 12 12 12 14 26 42 40 25 15 21 26 19 23 26 24 35 31 37 70 80 62 38 34 40 37 44 49 42 33 25 30 40 40 38 60 85 73 50 40 34 40 40 32 33 36
19 19 18 18 19 19 19 19 19 19 19 18 18 18 18 18 19 19 19 19 19 20 20 20 19 20 19 19 20 19 19 18 17 17 17 17 16 16 16 15 15 14 14 14 14 13 13 13 13 13 13 12 12 11 12 12 16 19 16 11 11 16 15 13 21 19 21 37 30 26 52 66 52 35 28 29 30 32 31 30 27 23 27 32 35 42 60 66 48 34 36 38 39 37 33 35 38
20 20 20 20 20 20 20 20 20 20 20 20 19 19 19 19 19 19 19 19 19 19 19 19 19 19 19 19 19 19 19 18 18 18 17 17 16 16 16 15 15 15 14 14 14 14 14 14 13 13 12 12 12 11 11 11 12 11 11 13 12 12 15 16 16 16 19 20 25 32 43 61 57 31 18 20 23 23 23 26 25 22 21 23 29 33 32 31 32 34 39 41 41 39 33 35 43
19 19 19 20 20 20 20 20 20 20 20 20 20 20 19 19 19 19 18 18 18 18 18 18 18 18 18 18 18 18 18 18 18 17 17 17 16 16 16 16 15 15 15 15 15 14 14 14 13 13 12 12 12 11 11 11 11 11 12 11 11 15 14 14 12 14 15 14 28 43 55 68 45 15 19 25 24 22 20 21 20 22 23 24 29 28 28 40 52 56 63 68 63 54 40 38 46
16 17 17 17 17 17 18 18 18 18 18 18 18 19 18 19 18 18 18 18 18 18 18 18 18 17 17 18 17 17 17 17 17 17 17 16 16 16 16 16 15 15 15 15 16 15 14 14 13 13 12 12 12 11 11 12 12 12 12 11 11 13 12 13 13 12 11 14 24 32 48 55 27 14 23 22 22 22 20 21 22 24 24 25 26 29 52 78 89 92 96 97 92 83 67 56 55
17 17 17 16 16 16 16 16 16 16 17 17 17 17 17 17 18 18 18 18 18 18 18 17 17 17 17 17 17 17 17 17 17 16 16 16 16 16 15 15 15 16 16 15 15 14 14 13 13 13 12 12 12 12 11 12 12 12 12 11 11 11 12 12 11 12 11 12 17 19 28 32 20 19 18 17 22 22 23 24 25 29 30 29 25 42 84 102 99 101 100 100 101 100 92 83 80
21 21 20 19 18 18 18 18 18 18 17 17 17 17 17 17 17 18 17 18 18 17 18 17 17 17 17 17 17 17 17 17 17 16 16 16 16 15 15 15 15 15 15 15 14 14 13 13 13 12 12 12 12 12 12 12 11 12 12 11 13 12 12 12 12 13 12 13 15 15 17 17 17 19 18 19 19 21 25 27 35 43 43 44 47 70 100 101 97 102 100 100 101 100 100 97 97
25 25 23 22 21 21 21 21 20 20 20 20 20 20 19 19 19 18 18 18 18 18 17 17 17 17 17 17 17 17 17 17 16 16 16 15 15 15 15 15 15 15 14 14 13 13 13 13 13 13 13 12 12 12 12 13 12 13 13 13 14 14 14 15 15 16 16 17 17 18 19 19 23 23 24 21 22 33 33 34 44 50 64 77 84 95 101 100 101 101 99 100 101 100 101 99 100
30 29 27 26 25 24 24 24 24 24 24 24 24 23 22 21 21 20 20 19 19 19 18 18 18 17 17 17 17 17 16 16 16 16 15 15 15 15 15 14 14 14 13 13 13 13 13 13 13 12 13 13 13 14 13 15 15 16 16 17 18 18 19 19 20 21 21 23 23 25 25 27 30 28 30 26 38 60 49 48 59 61 85 101 98 102 101 100 100 99 101 100 100 100 100 99 97
37 35 33 32 29 29 31 30 29 30 30 32 32 30 27 26 24 22 21 21 20 20 19 19 19 18 18 18 17 17 16 16 16 16 15 15 14 14 14 14 14 14 14 14 13 14 14 14 15 14 15 16 16 17 18 20 20 22 22 23 25 25 26 26 27 28 28 30 30 33 33 35 36 35 38 31 55 88 65 64 88 87 97 103 98 102 101 100 100 100 101 98 101 101 99 100 98
45 43 42 42 39 38 41 41 40 41 41 44 45 39 35 33 29 27 26 26 24 23 22 22 21 20 20 19 18 18 18 17 16 16 16 15 15 15 15 15 16 16 16 16 16 16 17 18 19 20 20 21 23 24 26 27 27 29 29 30 32 32 34 34 35 36 37 38 38 41 41 42 44 43 45 35 54 88 68 66 98 100 99 101 99 102 99 100 100 99 101 100 101 100 99 100 100
55 55 55 55 53 50 52 52 51 52 52 55 57 51 45 42 38 36 35 35 34 32 30 29 28 27 25 23 23 22 21 21 20 19 18 18 18 19 19 20 20 20 20 20 20 21 23 24 25 27 28 28 29 30 32 34 34 35 36 38 39 40 42 42 43 44 45 48 47 50 50 50 52 50 53 47 46 62 57 65 93 100 101 102 99 101 100 100 100 99 100 100 100 99 101 100 99
65 65 65 65 65 62 59 59 60 60 60 63 65 60 55 54 51 48 48 48 47 44 41 39 37 35 33 30 29 29 29 28 27 26 26 26 26 25 26 27 27 26 26 26 27 29 29 30 31 32 34 34 34 34 35 37 38 40 41 43 45 47 48 48 49 52 54 56 56 58 59 59 60 58 60 59 54 53 51 68 97 102 99 102 101 101 100 99 100 100 100 100 101 100 99 100 100
73 72 73 73 73 71 68 67 67 67 66 66 69 68 67 69 66 63 61 60 59 56 52 49 46 42 39 38 38 37 37 35 34 33 33 33 32 31 31 32 32 31 32 32 32 34 34 34 35 35 37 38 38 37 36 37 39 43 45 48 51 53 55 56 56 58 60 63 65 67 69 68 68 67 68 66 64 60 53 65 93 102 102 104 100 99 101 101 100 99 100 100 99 100 100 100 99
80 79 78 77 77 76 74 74 72 72 70 69 73 77 79 80 79 76 74 73 72 72 68 58 50 47 45 44 44 43 41 39 38 38 37 36 34 33 33 33 34 34 34 34 34 36 38 37 37 38 39 41 42 41 39 38 39 43 47 51 56 58 60 63 64 66 68 70 73 75 77 78 76 74 74 73 70 68 61 60 73 88 100 105 101 98 97 99 102 100 99 100 100 100 100 100 100
81 82 81 80 79 76 75 74 73 73 72 73 78 83 87 88 90 89 83 81 81 84 90 81 63 53 52 51 48 46 44 42 42 42 39 39 38 37 37 36 35 35 34 35 35 38 41 41 41 42 43 43 43 43 42 42 43 45 50 54 59 63 66 70 72 74 76 77 79 81 82 83 84 82 79 78 76 74 71 65 63 67 79 93 97 97 95 95 100 102 99 100 100 100 100 101 100
81 81 81 82 80 78 78 76 73 74 73 74 79 84 88 91 96 97 87 80 79 85 100 105 89 74 70 66 57 49 48 50 49 46 44 45 46 44 42 39 37 37 37 37 37 42 46 46 48 49 51 49 43 43 46 49 51 52 56 60 64 69 74 78 81 82 83 84 86 87 87 87 88 88 85 85 84 81 78 74 71 67 66 72 74 79 95 101 98 101 101 100 100 100 101 101 100
80 81 82 82 81 82 83 81 80 81 78 77 80 82 84 86 89 90 83 75 76 84 98 109 106 98 93 85 75 66 60 59 58 54 52 52 51 49 46 44 44 43 42 41 42 50 54 53 55 56 57 58 53 50 53 56 59 61 64 68 71 76 81 85 87 89 89 90 92 93 95 95 93 91 92 95 96 94 91 86 85 82 77 74 69 68 85 100 102 102 101 100 101 100 101 100 99
71 75 78 77 78 80 81 83 87 90 90 88 86 85 82 83 82 81 80 77 80 87 96 105 109 106 104 100 96 91 82 79 75 67 60 57 54 53 52 51 52 50 47 47 52 61 63 61 64 62 61 66 67 66 67 66 67 71 74 77 79 82 85 88 89 93 94 94 95 95 97 97 96 96 100 105 105 104 103 101 100 99 93 89 85 77 76 88 97 102 102 100 102 102 102 101 99
65 67 71 69 69 73 74 77 83 88 92 91 92 93 87 87 89 88 89 89 91 96 98 101 106 108 107 105 105 103 100 98 90 76 67 64 64 63 63 62 59 55 51 51 61 73 74 71 71 67 66 72 76 80 83 82 81 82 83 83 84 86 90 93 95 98 101 101 100 99 100 97 96 99 104 104 103 103 104 104 105 106 104 98 94 87 79 78 82 92 100 100 101 103 102 100 101
63 64 65 64 65 68 67 69 73 78 81 83 94 99 89 89 95 95 96 94 91 97 101 100 102 108 109 106 105 103 102 102 95 86 81 80 79 77 76 75 71 64 56 52 62 74 77 78 80 77 76 81 85 90 95 97 96 95 92 91 90 90 94 99 104 105 105 107 104 103 103 101 100 102 104 102 100 101 101 101 102 103 104 100 95 89 81 77 74 78 92 100 101 101 101 100 100
67 64 63 62 64 66 65 64 67 70 73 77 91 95 85 88 93 90 93 94 86 85 94 103 108 110 109 106 106 104 100 100 100 97 96 96 94 89 85 84 82 75 64 56 60 69 71 77 84 85 85 86 89 95 101 105 105 102 99 100 101 99 99 104 109 110 108 107 103 101 102 102 102 102 102 101 100 102 101 100 103 103 101 98 95 92 82 76 71 69 84 100 102 99 99 101 99
81 72 71 72 72 73 72 71 71 71 72 73 82 85 79 80 84 78 79 86 86 79 81 94 105 109 110 108 108 108 105 103 103 100 99 102 103 98 91 86 81 77 69 59 60 68 70 74 78 82 86 87 88 91 97 103 106 105 103 103 104 104 104 105 108 109 108 104 100 100 101 100 100 100 101 103 104 105 102 100 103 103 102 98 96 96 89 77 69 65 75 93 101 99 99 101 100
86 79 83 83 82 83 81 82 84 82 80 77 77 80 78 76 79 75 71 77 82 80 80 83 87 95 102 105 106 107 108 106 104 103 99 98 101 101 97 89 80 76 71 61 61 68 70 71 74 77 81 84 88 89 90 92 96 102 105 103 103 104 106 105 103 104 106 105 103 102 101 100 100 100 100 101 104 107 103 101 102 101 102 102 97 97 94 83 70 63 65 81 96 99 97 101 101
84 83 88 86 85 86 84 86 88 87 89 87 83 82 82 84 88 87 80 78 77 77 84 86 84 88 93 97 100 102 106 106 106 106 102 99 98 98 97 94 87 82 78 69 66 70 69 68 71 74 78 80 84 90 91 91 90 93 99 101 103 105 107 106 103 103 103 105 107 106 104 102 102 102 101 100 101 104 104 103 104 100 100 103 99 97 97 89 78 67 61 69 87 98 98 100 101
82 84 88 84 84 85 84 86 85 86 89 91 87 83 84 89 96 98 90 84 79 73 79 88 92 93 95 96 96 98 103 106 107 105 103 101 96 91 93 95 93 90 88 83 79 77 73 73 74 75 80 83 87 92 96 98 97 96 97 99 102 105 107 107 106 105 104 104 104 104 105 105 105 106 103 101 100 102 105 106 104 101 101 102 100 98 98 95 87 77 65 61 74 93 99 100 100
82 85 85 84 84 82 83 84 81 82 83 83 83 80 83 89 95 100 96 91 91 83 79 88 97 101 101 100 99 101 103 105 107 105 104 102 96 93 94 95 95 95 94 93 90 86 83 83 82 80 82 87 94 100 101 103 104 103 103 103 103 104 105 106 106 105 105 103 100 97 97 100 103 108 108 105 102 101 104 106 102 101 102 103 102 99 98 98 94 87 74 62 65 79 92 99 100
84 86 85 84 85 79 79 82 79 80 78 76 79 76 76 83 86 91 93 94 99 96 86 85 93 100 102 104 105 107 106 104 104 103 103 103 99 99 97 92 91 90 89 90 91 90 91 92 90 85 82 83 88 95 97 99 100 101 103 105 106 106 107 107 107 106 106 104 100 95 92 93 95 99 105 109 108 104 104 105 102 102 103 103 104 102 99 98 97 93 84 72 67 69 78 91 98
85 89 87 86 87 81 79 82 79 83 82 76 79 77 75 80 80 79 82 86 92 94 89 82 81 86 91 97 104 108 109 106 104 103 103 102 101 101 99 93 89 86 82 82 83 83 86 89 91 90 87 85 83 83 84 86 90 93 97 99 101 103 105 107 107 108 108 107 105 100 95 93 91 90 92 100 107 108 106 104 102 102 103 103 104 104 102 99 97 95 92 83 74 68 69 80 90
76 81 85 89 92 87 84 85 83 86 87 79 77 79 81 86 84 77 78 81 84 85 83 78 74 74 76 80 86 94 102 106 107 107 106 104 104 103 103 101 97 94 89 85 82 81 80 82 85 87 88 89 87 84 81 81 84 87 90 93 95 97 99 102 104 106 106 107 108 106 101 98 96 92 86 86 95 103 107 107 105 103 102 102 103 103 103 102 99 96 94 90 81 72 68 73 82
62 65 74 81 84 82 80 83 85 87 85 79 78 80 82 86 84 81 82 84 86 85 84 82 79 76 74 73 73 76 83 89 95 100 99 100 104 106 107 107 105 103 98 93 90 88 87 86 84 84 86 88 89 88 86 84 83 82 85 87 90 93 94 96 99 102 104 105 106 109 108 105 103 100 93 86 84 89 96 102 107 107 104 101 101 101 101 103 102 98 94 92 87 78 70 67 72
60 60 67 69 70 74 73 73 75 77 76 73 73 75 76 77 78 78 80 81 81 82 83 85 85 84 82 80 77 75 75 76 79 83 83 86 94 102 106 107 108 108 105 103 101 98 97 95 91 89 90 89 87 86 88 88 86 84 84 86 87 89 91 91 92 97 101 103 104 106 107 106 105 105 103 98 90 85 84 88 95 103 107 105 103 101 100 101 102 101 96 93 91 86 77 70 66
66 65 66 65 66 70 68 65 65 67 69 67 67 69 69 69 69 70 71 72 73 74 76 78 79 81 81 81 80 79 77 76 75 75 74 74 81 89 95 98 99 98 98 98 97 96 98 100 98 96 96 94 87 84 87 91 92 88 85 87 89 89 89 90 91 93 97 97 97 99 102 102 101 100 101 101 99 95 88 84 84 89 96 103 106 105 103 101 101 102 100 96 94 91 86 80 72
71 68 66 65 65 65 64 62 62 62 62 61 63 64 64 65 65 63 62 62 64 66 68 68 69 70 71 73 75 75 76 76 75 74 72 70 71 76 83 88 88 85 83 81 79 80 85 91 92 91 92 93 91 89 90 93 96 94 90 88 89 89 89 91 93 95 94 92 90 91 93 94 96 96 95 96 99 100 99 94 89 85 84 89 97 104 107 105 103 102 101 100 98 95 91 87 83
73 69 66 64 62 61 59 57 57 58 57 56 57 58 60 61 60 58 56 55 58 60 61 61 62 62 63 64 65 67 69 70 70 70 69 68 68 70 74 76 76 76 75 73 70 68 71 75 78 79 79 81 85 89 90 91 93 96 97 94 87 84 86 89 92 93 92 90 90 91 91 91 93 93 92 93 96 101 103 103 99 94 89 86 86 91 99 105 106 104 103 102 102 100 98 94 90
68 66 64 62 60 59 58 55 54 53 52 52 51 54 59 58 54 54 54 52 53 54 54 55 57 57 58 59 60 61 61 62 63 64 65 64 63 66 68 68 67 68 67 67 64 62 63 64 63 63 64 68 74 79 82 85 86 86 90 91 83 78 79 82 86 89 90 89 90 92 94 96 96 94 91 91 94 98 102 103 101 97 94 92 89 88 89 93 97 100 102 103 103 103 102 100 97
63 62 60 59 59 60 60 60 60 56 54 53 51 54 59 58 55 55 55 52 50 50 51 51 52 53 54 55 55 56 56 57 58 58 60 61 60 61 63 64 65 64 63 63 61 61 61 59 55 54 55 58 61 63 68 76 77 72 70 73 73 72 71 73 77 81 85 86 88 90 92 96 99 98 95 93 92 94 96 100 103 101 97 95 94 93 92 91 90 89 91 94 99 102 104 104 102
Wind_Speed
90 91 91 91 91 91 91 91 90 90 90 90 90 90 89 88 88 86 86 86 87 87 86 86 86 86 86 86 86 87 87 87 87 87 86 87 87 87 86 86 86 85 85 85 86 86 86 86 86 85 85 85 86 85 85 85 85 85 85 85 85 85 85 84 83 82 81 80 79 79 78 78 77 77 77 76 75 75 75 75 74 73 73 73 72 72 71 70 69 67 66 65 64 62 60 59 58
90 90 90 90 90 90 91 90 90 91 91 92 92 91 90 90 89 87 86 88 88 88 88 87 87 88 88 88 88 88 88 89 89 89 89 89 89 89 89 88 88 87 87 87 88 88 89 88 87 87 87 87 87 87 87 86 86 86 86 85 85 85 84 83 82 81 81 80 79 79 78 78 78 77 77 77 76 76 76 76 75 74 74 74 73 72 71 70 68 67 66 64 63 61 60 58 57
89 89 89 89 89 89 88 88 88 89 90 91 91 90 90 89 88 87 86 87 88 89 88 88 88 88 88 89 89 89 89 90 90 90 90 90 90 90 90 90 89 88 88 88 89 90 90 89 89 88 88 88 87 87 87 86 86 86 85 85 85 84 83 82 82 81 81 80 79 79 79 78 78 77 77 77 77 77 77 76 75 75 75 74 74 73 71 70 68 66 65 64 62 61 59 57 55
89 89 89 89 88 88 87 87 87 87 88 90 90 89 89 89 87 86 85 86 88 89 88 88 87 87 88 89 90 89 90 91 91 91 91 91 91 91 91 90 90 90 89 89 90 90 90 90 89 89 88 88 87 87 87 86 85 86 85 85 85 84 83 83 82 82 81 80 80 80 79 79 78 78 77 77 77 77 76 76 76 76 75 74 74 73 71 70 67 66 64 63 61 60 58 56 54
90 90 90 90 89 89 88 88 87 88 89 90 90 88 89 89 87 86 85 85 87 89 88 88 88 87 88 89 90 89 90 91 90 91 92 91 91 91 91 91 91 90 89 89 90 90 89 90 90 89 89 88 87 87 86 86 86 86 86 86 85 84 84 83 83 82 81 81 80 79 78 77 77 77 76 77 78 77 76 77 77 77 75 74 74 72 71 69 67 65 64 62 60 59 56 54 53
91 91 91 91 91 91 90 89 89 90 90 91 92 90 90 90 88 88 86 86 87 89 89 89 89 88 89 89 90 90 90 91 90 91 92 92 92 91 91 91 91 90 90 90 90 90 89 90 90 89 89 88 87 87 87 87 86 86 86 86 85 85 84 84 83 82 81 80 78 77 76 76 77 77 78 78 78 76 77 78 78 77 76 74 73 72 70 68 66 64 63 61 59 57 55 53 52
92 92 92 92 92 92 91 91 92 92 92 92 93 92 91 91 89 89 88 88 88 90 90 90 90 90 90 90 91 91 91 92 92 92 92 92 92 92 92 91 91 90 90 91 90 89 89 89 89 89 89 88 88 87 87 86 86 86 86 86 85 85 84 83 82 81 80 79 78 78 77 78 79 79 79 78 77 77 78 78 78 77 75 74 73 71 69 67 65 63 61 59 57 55 53 52 51
94 93 94 93 93 93 92 93 94 94 94 94 95 94 93 92 91 90 90 90 89 90 91 92 92 91 91 91 92 91 92 93 93 93 93 93 93 93 92 92 91 91 91 91 90 89 89 89 89 89 89 88 88 87 87 87 86 86 86 86 85 84 83 82 81 81 80 79 79 79 79 80 80 80 78 77 77 78 78 78 78 77 75 73 71 69 68 66 63 61 59 57 55 53 52 51 49
96 95 95 95 95 94 94 95 95 96 96 96 96 96 94 92 92 92 92 92 91 91 92 93 93 93 92 92 93 94 94 94 93 94 93 93 93 93 93 92 92 92 92 91 90 90 90 89 89 88 88 88 88 87 85 84 84 85 86 85 84 82 82 82 82 81 80 79 79 79 80 81 81 80 78 78 78 78 78 78 77 75 74 71 69 68 66 64 61 58 56 55 54 52 50 49 47
97 97 97 97 96 96 96 96 97 97 98 98 98 97 94 93 94 94 94 94 93 93 93 94 94 94 94 94 95 95 94 94 94 94 94 94 94 94 93 93 92 92 92 91 91 90 90 89 88 87 86 84 84 84 82 82 83 84 84 83 83 83 83 83 83 82 80 80 79 80 82 82 80 79 79 79 78 78 78 76 74 73 71 69 67 65 62 60 58 56 54 53 52 50 47 46 45
99 99 99 98 98 98 98 98 98 98 99 100 99 97 94 94 95 96 96 95 95 94 94 94 95 95 96 96 96 96 96 96 95 95 95 95 95 94 93 93 92 92 92 91 90 90 89 89 87 85 80 75 78 82 82 83 84 84 84 84 85 85 84 83 82 81 79 79 80 82 82 81 80 79 79 79 77 76 74 73 71 70 68 66 63 61 58 58 57 54 52 51 49 47 46 45 44
101 101 100 100 99 99 99 99 99 99 101 101 100 97 95 95 96 97 97 97 96 95 96 96 96 97 96 96 96 97 97 96 96 96 96 96 95 94 94 93 92 92 92 91 91 91 90 88 87 84 80 77 80 83 83 84 86 85 84 84 85 84 83 81 79 79 78 80 82 82 81 79 79 78 78 76 73 71 70 69 68 66 64 62 60 58 57 55 53 51 50 49 48 46 45 44 44
102 102 102 102 101 101 101 101 101 101 102 102 100 97 96 95 96 97 98 98 97 97 97 97 97 97 97 97 98 98 98 97 97 97 97 97 96 95 94 94 93 93 93 92 92 92 91 89 87 84 83 83 81 80 80 83 85 86 86 87 86 83 80 79 80 80 81 82 82 81 81 79 78 76 75 72 69 67 65 62 62 61 61 60 58 57 53 50 50 51 50 48 47 45 43 42 43
104 104 104 103 103 103 103 103 103 103 104 103 101 99 97 96 96 98 99 99 99 98 99 99 98 98 97 97 98 99 98 98 98 98 98 98 97 96 95 95 95 94 94 93 93 93 92 90 88 85 85 82 78 78 82 85 85 85 85 84 80 78 78 81 83 83 83 82 81 80 78 76 75 72 68 67 66 62 58 58 59 58 58 57 56 54 52 50 50 50 49 47 45 43 41 40 41
103 104 104 103 103 104 104 104 104 105 106 103 102 100 99 98 98 98 99 100 100 100 100 100 100 99 98 97 98 99 97 99 99 99 100 99 98 98 97 97 97 96 96 95 94 94 93 92 90 87 84 82 82 84 85 83 81 77 76 76 75 76 80 83 84 83 83 81 78 75 72 70 70 66 61 61 62 59 58 57 55 54 55 56 55 53 52 51 49 47 47 45 43 41 39 38 38
101 102 102 102 102 103 104 105 105 106 106 103 102 101 100 99 99 99 99 100 100 101 102 102 102 100 99 98 99 99 99 101 102 101 101 100 100 100 99 98 98 97 97 96 95 95 94 93 92 90 87 86 87 85 80 76 75 74 76 79 77 78 81 82 81 80 79 75 72 70 66 62 61 59 56 59 59 56 54 50 50 52 52 52 52 51 50 49 47 45 44 43 41 40 38 36 36
98 98 98 99 99 100 102 103 104 105 104 102 100 101 101 99 99 98 98 98 99 101 102 102 103 102 100 99 100 101 102 103 103 102 102 102 101 101 99 98 98 97 97 97 97 96 95 93 92 90 89 88 86 82 79 77 78 78 76 75 75 77 76 73 74 73 70 66 65 63 59 57 56 55 53 54 52 50 50 49 50 49 46 46 47 49 50 48 48 44 41 41 41 39 37 35 34
94 94 95 95 96 97 98 99 99 99 98 97 96 97 98 97 97 97 96 96 97 98 100 102 103 102 101 101 101 102 103 103 103 103 102 101 100 99 98 97 96 97 97 97 96 95 93 91 89 87 86 84 82 81 80 80 81 78 73 73 72 69 64 60 60 59 56 56 57 52 50 52 49 48 52 52 50 50 50 49 47 44 44 44 47 51 52 49 48 45 44 43 42 39 36 34 33
91 91 92 92 93 94 95 94 94 94 93 92 92 92 94 94 94 94 93 94 95 96 98 101 102 102 102 101 101 102 102 101 101 100 98 97 96 96 96 95 95 95 95 94 94 92 90 88 85 83 81 80 79 79 78 77 77 74 74 71 62 58 57 53 51 53 51 50 49 43 42 46 45 50 55 54 52 52 49 45 46 46 46 47 49 51 49 48 48 48 46 41 40 38 35 34 33
88 89 89 90 91 92 92 91 90 90 89 89 89 90 91 92 92 92 91 91 92 93 95 99 100 101 100 99 99 99 98 98 97 95 94 94 94 95 94 93 92 91 91 91 90 88 86 83 81 78 77 77 78 77 76 75 73 71 69 60 54 58 60 55 54 57 51 45 42 39 40 42 48 55 54 51 52 52 47 45 46 48 49 49 47 44 43 46 47 46 43 39 38 37 34 33 33
86 87 87 89 89 89 89 88 88 87 87 87 87 88 89 90 90 89 89 88 89 90 92 94 96 97 95 94 93 93 94 95 94 92 92 93 93 92 91 89 88 87 87 87 86 84 81 79 77 76 76 76 77 76 74 72 67 62 59 57 61 63 61 59 59 59 53 48 47 45 45 46 51 56 55 54 54 51 47 45 47 50 50 46 41 39 40 43 43 43 42 41 39 35 33 32 32
84 85 86 86 87 86 86 86 85 85 86 86 86 86 87 87 87 87 86 86 86 86 88 90 91 92 90 89 89 90 93 94 92 91 91 91 90 89 87 86 85 85 85 84 83 80 78 77 76 76 76 76 76 75 73 70 63 59 62 68 70 66 64 66 63 61 57 52 54 50 42 45 54 59 57 54 51 49 48 49 51 51 46 40 38 37 35 38 42 43 43 42 38 33 31 31 32
81 82 83 83 83 83 83 82 83 83 83 83 83 83 84 84 84 84 84 84 84 84 85 86 87 87 87 87 88 89 92 92 90 89 89 89 88 86 85 84 84 84 83 82 80 79 78 78 77 76 76 76 75 74 73 71 69 68 70 72 71 68 69 68 64 64 58 53 59 55 44 47 59 61 56 53 52 50 50 50 50 47 43 40 38 36 35 41 44 43 40 38 36 32 29 29 30
78 79 79 80 80 80 80 80 81 81 81 81 81 82 82 82 82 82 83 83 83 83 84 84 85 85 85 86 87 88 90 90 89 88 88 87 86 85 84 84 83 83 82 80 80 79 80 79 78 77 76 76 76 75 74 73 72 71 71 71 71 70 69 68 66 64 60 57 59 56 50 55 62 61 58 54 51 50 50 49 47 45 44 41 39 38 38 41 41 39 37 36 33 30 27 27 29
76 76 77 78 79 79 79 80 80 80 80 80 81 81 81 82 82 82 82 82 82 83 83 84 84 85 84 85 87 88 88 89 89 89 88 87 86 85 85 84 83 82 81 80 81 81 81 80 79 78 77 76 76 75 74 73 73 72 72 72 71 69 68 69 67 65 62 57 53 51 53 60 64 62 57 52 49 49 49 48 45 43 41 40 38 36 35 34 34 34 32 30 28 26 25 26 27
72 73 74 75 76 76 77 78 79 79 79 80 81 81 81 81 82 82 82 82 82 83 83 84 84 84 84 85 87 88 88 89 89 89 88 88 87 87 86 85 83 81 81 81 82 82 81 80 80 79 77 76 76 75 74 73 73 73 72 72 71 70 69 68 67 66 63 58 53 53 56 63 64 59 55 52 49 48 46 44 42 40 39 38 35 33 30 27 27 27 26 24 23 23 22 23 25
65 66 68 69 70 70 71 73 74 74 75 76 77 78 78 79 80 80 81 81 81 82 82 83 83 84 84 84 86 87 88 88 88 89 88 88 88 87 86 84 82 81 82 82 82 82 81 80 79 78 77 76 75 74 74 73 73 73 72 72 71 70 69 68 67 65 64 60 56 55 58 62 61 57 55 52 49 46 43 41 39 37 35 34 33 30 26 24 26 26 24 23 22 22 20 20 22
57 58 60 61 62 62 63 64 65 66 68 69 70 72 73 74 75 75 77 77 78 79 79 80 81 81 82 83 84 85 86 87 87 87 87 88 87 86 84 82 81 81 82 81 80 80 79 78 77 76 75 75 74 73 73 72 72 72 71 71 70 69 68 67 65 64 62 59 57 57 58 58 56 54 52 49 46 42 39 37 35 33 30 29 30 29 26 25 26 27 26 24 23 23 21 20 21
50 52 53 54 55 55 55 56 57 58 59 60 62 63 65 67 68 68 70 71 72 74 74 76 77 78 78 80 81 82 83 84 85 85 85 85 84 82 80 79 80 80 80 79 77 76 76 76 75 74 74 73 73 72 72 71 71 70 69 68 67 67 65 64 62 61 59 57 55 54 54 52 50 49 47 45 41 37 35 34 33 30 27 27 29 29 28 28 27 27 27 26 26 25 23 22 23
45 46 47 47 48 48 48 49 49 50 51 52 53 56 57 58 59 60 62 63 64 66 67 69 70 71 72 74 75 77 78 79 79 79 79 79 78 76 76 76 76 76 75 75 73 73 72 72 72 72 71 71 70 70 69 68 68 67 66 65 64 63 62 60 59 57 55 54 52 50 49 47 45 45 42 39 35 31 30 31 30 28 27 27 29 30 30 30 28 27 28 27 27 27 26 25 23
40 41 42 43 44 43 43 44 44 44 44 45 47 49 49 50 52 53 54 55 57 58 59 61 62 64 65 67 69 70 71 71 71 72 72 72 72 71 71 71 71 71 71 70 70 69 69 69 69 69 68 68 67 66 66 65 63 62 61 60 59 58 57 56 54 53 51 49 48 46 45 43 41 40 38 36 34 29 28 30 28 28 29 28 30 32 31 31 29 28 28 28 28 28 27 26 24
37 38 38 40 40 39 39 39 39 39 39 40 42 44 44 45 46 47 48 49 50 52 53 55 57 58 60 61 62 64 64 65 66 66 67 67 66 65 65 65 65 66 67 66 66 66 65 65 65 65 64 63 62 61 60 59 58 57 56 55 54 53 52 51 50 48 47 45 44 42 42 40 38 37 36 35 34 32 31 32 31 30 32 32 32 34 34 33 32 31 30 29 29 29 28 26 25
36 36 36 37 38 37 37 37 37 37 37 37 39 40 41 41 42 42 42 43 45 46 48 50 51 53 54 56 57 58 59 60 60 61 61 61 60 60 61 61 62 63 63 62 62 62 61 60 59 60 60 59 58 56 55 54 54 53 52 51 50 49 48 47 46 44 43 42 40 39 38 37 35 34 34 34 35 36 36 36 35 34 35 37 37 36 36 36 35 33 31 30 30 29 28 27 26
35 36 36 36 37 37 37 36 36 36 36 36 37 38 38 39 39 39 39 39 40 42 44 45 47 48 49 50 51 52 53 54 54 54 55 55 55 55 56 56 57 58 57 57 56 56 55 55 54 54 54 54 54 52 51 50 50 49 48 47 46 45 45 44 42 41 40 39 37 36 36 35 34 32 33 33 34 36 38 38 37 36 37 39 39 38 38 39 39 37 33 30 29 28 27 27 26
36 36 36 37 37 37 37 36 36 36 36 36 37 37 37 37 38 37 37 37 38 39 41 42 43 44 45 45 46 47 48 48 49 49 49 49 50 50 50 51 51 51 51 50 50 49 49 49 49 50 50 50 49 49 48 47 46 45 44 44 43 42 41 41 39 38 37 36 35 34 34 33 33 31 32 33 34 36 38 40 41 39 38 40 41 41 40 39 40 40 36 32 29 28 27 27 28
38 38 38 38 38 38 38 37 37 37 37 37 37 37 38 38 38 38 37 37 37 37 39 41 42 42 42 42 43 44 44 44 44 44 45 45 46 46 45 45 46 45 45 45 44 44 44 45 45 45 46 45 45 45 45 44 43 42 41 40 40 39 38 37 37 36 35 34 33 33 32 32 32 31 32 33 34 35 37 40 43 42 41 42 42 43 43 42 41 41 41 37 31 30 29 29 30
41 41 41 41 41 40 39 39 38 38 38 38 38 39 39 39 39 39 38 37 37 37 38 40 41 40 40 40 41 41 41 40 40 41 41 41 41 41 41 41 41 41 41 40 40 39 39 40 40 41 41 42 41 41 41 40 39 38 37 37 36 35 35 35 34 34 33 32 32 31 31 31 31 31 31 32 34 35 36 38 41 43 44 45 44 44 45 46 44 42 43 41 35 31 30 30 31
44 43 43 43 43 42 41 41 40 40 40 39 39 40 40 40 40 40 40 39 39 38 38 39 40 40 39 39 39 39 38 37 38 38 38 37 37 37 37 38 38 37 37 36 35 34 35 35 35 36 37 38 38 37 36 36 35 35 34 33 33 32 32 32 32 32 31 31 31 30 30 30 30 31 31 32 33 34 36 37 39 42 44 45 46 46 46 47 47 45 43 42 38 33 30 31 32
45 45 45 45 44 44 43 43 42 42 42 41 41 42 42 42 42 42 42 41 39 39 39 39 40 39 39 39 39 38 37 36 36 36 35 34 35 35 35 35 34 34 33 33 31 29 30 31 31 32 32 34 35 34 33 33 32 32 31 31 30 30 30 30 30 30 30 30 30 29 29 30 30 30 30 31 33 34 35 36 38 39 41 42 43 45 46 46 46 46 44 42 41 36 31 30 31
46 46 47 47 45 45 44 43 43 43 44 44 44 44 44 44 44 44 43 42 41 41 40 40 40 40 40 40 40 39 38 37 36 36 35 34 34 34 33 33 32 32 31 29 26 26 27 28 28 30 30 31 32 32 31 31 30 30 29 29 29 28 28 28 28 29 29 29 29 29 29 29 30 30 30 31 32 33 34 35 37 38 39 39 40 41 43 45 46 46 45 43 42 37 33 32 33
47 47 48 48 46 46 45 44 44 44 45 45 45 46 46 45 45 45 44 43 42 42 42 41 41 41 41 41 41 41 40 39 39 38 37 36 35 34 33 32 32 32 30 26 22 23 25 26 27 28 28 28 29 29 29 30 29 28 28 27 27 27 27 27 27 28 28 28 28 28 29 29 30 30 30 31 32 33 34 35 36 37 37 38 38 39 40 43 45 46 45 44 43 40 36 37 37
46 47 47 47 46 46 46 45 45 45 46 45 45 47 47 45 46 46 46 46 45 44 44 44 43 43 43 43 43 43 42 42 42 41 39 38 36 35 34 34 33 32 30 25 21 22 24 24 25 26 25 26 27 27 27 28 28 28 27 26 26 26 26 26 26 27 27 27 28 28 28 29 29 30 31 32 33 33 34 35 36 36 37 37 38 38 38 40 42 45 46 44 42 40 39 39 40
44 45 45 45 45 46 46 45 45 46 46 45 46 48 47 46 47 48 47 48 48 47 46 45 45 46 46 46 45 45 45 44 44 43 42 41 40 38 37 36 36 34 32 26 22 23 24 23 24 24 24 25 25 25 25 26 27 27 27 26 26 26 26 26 26 27 28 28 29 29 29 30 30 31 32 33 33 34 34 35 36 37 37 37 37 37 38 39 40 43 45 44 43 42 41 41 42
43 43 42 43 43 43 44 44 44 45 46 46 47 49 49 48 49 49 48 49 49 48 47 47 48 48 48 48 48 47 47 46 47 46 45 44 43 42 42 41 39 36 35 31 26 25 26 26 25 25 25 26 26 26 25 26 26 27 27 27 27 27 27 27 27 28 28 29 30 30 31 31 31 32 32 33 34 34 35 35 36 36 37 37 37 37 38 39 40 42 44 45 45 44 44 44 43
42 41 40 41 41 41 41 41 42 43 44 45 45 47 48 47 49 50 49 49 50 49 49 50 50 50 50 49 49 48 48 48 48 48 48 47 46 45 45 45 43 39 38 36 30 29 30 29 29 28 28 28 28 28 28 27 28 28 28 29 29 29 29 29 29 29 29 30 30 31 32 32 32 33 33 34 34 34 35 36 36 36 36 37 37 37 37 38 40 41 44 46 46 47 48 46 45
42 40 40 41 40 40 40 40 41 41 41 42 43 43 44 44 46 48 48 47 49 49 49 51 51 50 50 50 49 49 49 48 49 49 49 49 48 48 47 47 45 43 42 40 35 34 34 33 32 31 31 31 30 30 30 30 30 30 30 31 31 31 31 32 32 32 32 32 32 32 32 33 33 34 34 34 35 35 35 36 36 36 36 36 37 37 37 38 40 42 44 46 47 49 51 49 49
43 42 42 42 41 41 41 41 41 40 40 41 41 41 41 41 43 46 47 46 46 47 47 49 50 50 50 50 50 49 49 49 49 50 50 50 50 49 48 48 47 45 44 43 40 39 38 36 36 35 34 33 32 32 32 33 33 33 33 34 34 34 34 34 35 34 34 34 34 34 34 34 34 35 35 35 35 36 36 36 36 36 36 36 37 37 37 38 39 41 44 46 47 49 53 53 53
45 45 45 44 44 43 43 43 43 42 43 42 42 42 41 42 43 46 47 46 45 45 45 46 47 48 49 50 49 49 49 49 49 50 50 51 51 50 49 48 47 46 46 45 44 42 41 40 40 39 38 37 35 35 35 35 36 36 36 37 37 37 37 37 37 37 37 37 37 36 36 36 36 36 36 36 36 37 37 37 37 37 37 37 37 38 38 38 39 41 43 46 47 48 51 55 55
47 48 48 47 47 47 45 46 46 45 46 45 44 45 43 44 45 47 48 48 47 47 46 45 46 46 47 47 48 48 48 48 49 49 50 52 52 51 50 50 49 48 47 46 45 44 43 42 43 43 42 42 41 40 40 39 39 39 39 39 39 40 40 40 40 40 39 39 39 39 38 38 37 37 37 37 37 37 38 38 38 38 38 38 38 39 39 39 40 41 43 45 46 47 49 53 55
49 50 50 49 50 50 48 49 49 48 49 48 47 47 46 46 48 49 50 51 51 50 49 48 48 47 47 47 47 47 47 47 48 49 50 51 51 51 51 51 50 50 49 48 48 47 45 44 44 44 45 45 45 45 45 44 43 42 41 41 41 41 42 42 42 42 42 42 42 41 41 40 39 39 39 38 38 38 39 39 39 39 39 39 39 39 40 41 41 42 43 45 46 47 47 50 53
51 51 51 51 52 52 50 51 51 51 52 51 50 49 49 50 52 51 52 53 54 54 53 52 52 51 50 50 49 49 48 48 49 49 50 50 51 51 52 52 51 51 50 50 49 49 47 46 45 45 46 47 47 47 47 47 46 46 45 44 44 44 44 44 44 44 44 44 43 43 43 42 42 41 40 40 40 40 40 41 41 41 41 41 41 41 41 42 42 43 44 45 46 47 48 49 51
52 51 51 52 53 53 52 51 52 52 53 53 51 51 51 53 54 54 54 55 56 57 57 56 56 55 54 53 53 52 52 51 51 51 52 51 52 52 52 52 52 52 52 51 51 50 49 48 47 47 47 47 48 48 48 48 47 47 47 47 47 47 47 47 46 46 46 46 45 45 45 44 44 43 42 42 42 42 42 42 43 43 43 43 43 43 43 43 44 44 45 46 47 48 49 50 51
52 51 52 53 53 53 53 52 52 52 53 53 52 52 53 54 55 55 56 57 58 58 58 58 58 58 57 57 56 56 55 55 54 54 54 54 53 54 54 54 53 53 53 52 52 51 51 50 49 49 48 49 49 48 48 48 48 47 48 48 49 49 49 49 49 49 49 48 47 47 47 47 46 46 45 44 44 43 43 44 44 45 45 45 45 45 45 45 45 46 46 47 47 48 49 50 51
52 52 52 53 52 53 54 54 53 53 54 53 52 53 54 55 56 57 58 58 58 58 59 59 60 60 59 59 59 58 58 57 57 57 57 56 56 56 56 56 56 55 55 55 54 53 52 52 52 51 51 50 50 49 48 49 49 49 49 49 50 50 50 50 50 51 51 51 50 49 49 49 49 49 48 48 46 46 45 46 46 46 47 47 47 47 47 47 47 47 48 48 48 49 50 50 51
52 52 52 53 53 54 55 54 54 54 55 54 54 54 55 57 58 59 59 58 58 59 60 60 61 61 61 60 60 60 60 59 59 59 59 58 58 58 58 59 59 59 58 58 57 56 55 55 55 54 53 53 52 51 50 50 50 51 51 51 51 51 51 51 51 52 52 52 52 51 51 51 51 51 51 50 50 49 49 48 48 48 49 49 49 49 49 50 50 50 49 50 50 50 51 51 52
51 52 52 53 53 54 55 55 54 55 55 55 54 54 55 59 61 61 60 59 58 59 60 61 62 62 62 62 62 62 61 61 61 61 61 60 59 59 60 61 61 61 60 61 60 59 58 59 59 58 57 55 55 54 54 54 53 53 53 54 53 52 52 52 53 53 53 53 53 53 53 53 54 54 53 53 53 53 52 52 51 50 50 51 51 51 52 52 52 52 52 52 52 52 53 53 53
52 53 53 54 54 54 55 55 55 55 56 55 54 53 55 60 60 59 60 59 59 60 60 61 61 62 62 62 62 62 62 62 62 62 62 61 60 60 61 62 61 62 62 62 62 61 61 61 62 61 59 57 57 58 57 58 58 57 57 57 56 55 54 54 54 54 54 54 54 54 54 55 56 56 56 55 55 55 55 55 55 54 53 53 53 54 54 55 55 55 55 55 55 54 55 55 55
54 54 54 54 54 54 54 54 54 56 55 55 54 52 54 58 58 56 58 59 58 58 59 59 59 60 60 61 61 62 62 62 62 62 62 62 61 61 61 62 62 62 62 62 62 62 62 63 63 61 60 59 59 59 59 60 61 61 60 60 59 58 58 57 56 56 56 55 55 55 56 56 57 58 58 58 58 58 58 58 57 57 57 56 56 56 56 57 58 58 57 57 57 57 57 57 58
Wind_Direction
258 259 259 260 260 261 262 262 263 264 265 265 265 266 266 266 266 267 268 269 269 270 270 271 272 272 273 273 274 275 275 276 276 277 277 277 277 278 278 279 279 280 281 282 283 283 284 285 285 286 287 288 289 289 290 291 291 292 293 293 294 294 295 296 297 297 298 299 299 300 300 301 301 302 302 302 302 302 302 303 303 303 304 304 304 304 305 305 305 304 304 304 304 304 304 304 303
258 259 259 260 260 261 261 262 262 263 264 264 265 265 266 266 266 267 267 268 269 269 270 270 271 272 272 273 273 274 275 275 275 276 276 276 277 278 279 279 280 281 281 282 283 283 284 285 285 286 287 288 288 289 290 291 291 292 293 293 293 294 295 296 296 297 298 299 299 299 300 300 301 301 301 301 301 301 301 301 302 302 303 303 303 303 303 303 303 303 303 303 303 303 303 302 302
258 259 259 259 260 260 261 261 262 262 263 263 264 264 265 266 266 266 267 268 268 269 269 270 270 271 272 272 272 273 274 274 274 275 275 276 277 278 279 279 280 281 281 282 283 283 284 285 285 286 287 288 288 289 290 291 291 292 292 293 293 294 295 296 296 297 298 298 298 299 299 299 299 300 300 300 300 300 300 300 301 302 302 302 302 302 302 302 302 302 301 302 301 301 301 301 300
258 258 258 259 259 260 261 261 261 262 262 263 263 264 265 265 266 266 266 267 268 268 269 269 270 270 271 271 272 272 273 273 274 274 275 276 277 277 278 279 280 280 281 282 282 283 284 285 285 286 287 287 288 289 290 291 291 292 292 293 293 294 295 295 296 296 297 297 297 297 298 298 298 299 299 299 299 300 299 299 300 301 301 301 301 301 301 301 301 301 300 300 300 300 300 299 298
258 258 258 259 259 260 260 261 261 262 262 263 263 264 264 265 265 266 266 266 267 268 269 269 270 270 270 271 271 271 272 273 273 274 275 276 276 277 278 279 279 280 280 281 281 282 283 284 285 286 286 287 288 289 290 290 291 292 292 292 293 294 294 295 295 296 296 296 296 296 296 297 297 298 298 298 299 298 298 299 299 300 300 300 300 300 300 300 300 300 299 299 299 299 298 298 297
258 258 259 259 259 260 260 261 261 261 262 262 263 263 264 265 265 266 266 266 267 268 269 269 269 270 270 270 271 271 272 272 273 274 274 275 276 277 277 278 279 279 280 280 281 282 283 284 285 285 286 287 288 289 289 290 290 291 291 292 292 293 293 294 294 295 295 295 295 295 296 296 297 297 297 297 297 297 297 298 298 299 299 299 298 299 299 299 299 299 299 298 298 297 296 296 296
258 259 259 260 260 260 261 261 261 262 262 262 263 263 264 265 265 266 266 267 267 268 269 269 269 270 270 270 271 271 271 272 273 273 274 275 276 276 277 278 278 279 279 280 281 281 282 283 284 285 286 287 288 288 289 289 290 290 290 291 291 292 292 293 293 293 294 294 293 294 294 295 296 297 297 296 296 296 297 297 297 298 298 298 297 298 298 298 298 298 298 297 297 296 295 295 294
259 259 260 260 260 261 262 262 262 262 262 263 263 264 264 265 266 266 267 267 267 268 268 269 270 270 270 270 271 271 272 272 273 273 274 275 275 276 276 277 277 278 279 279 280 281 282 282 283 284 285 286 287 288 288 288 288 288 289 290 290 291 291 292 293 293 293 292 292 292 293 295 296 296 296 295 295 296 296 297 296 297 297 297 297 297 297 297 297 297 297 297 296 295 294 293 292
259 260 260 260 260 261 262 262 263 263 263 264 264 264 265 266 267 267 267 267 268 268 268 269 270 270 271 271 271 271 272 272 273 273 274 274 275 275 276 276 277 278 278 279 279 280 281 281 282 283 285 286 286 286 287 287 287 288 289 289 290 291 291 292 292 292 292 291 291 292 294 295 295 295 294 294 294 295 295 296 296 296 296 296 295 296 296 296 296 296 296 296 295 294 293 292 291
261 261 261 261 261 261 261 262 262 263 264 264 264 265 266 267 268 268 268 268 268 269 269 270 270 271 271 271 272 272 272 273 273 273 273 274 274 275 275 276 276 277 277 278 279 279 280 281 282 283 285 285 284 285 286 286 287 288 289 289 290 290 291 291 291 291 290 290 290 292 293 294 293 293 293 293 293 294 295 295 295 295 295 295 295 295 295 295 295 295 294 295 294 292 291 291 289
262 262 262 262 262 262 262 262 262 263 263 264 264 265 266 267 268 268 269 269 269 269 270 270 270 271 271 271 272 272 273 273 273 273 273 274 274 274 275 275 276 276 277 278 278 279 279 280 281 283 284 283 283 285 286 287 287 287 288 288 289 290 290 290 290 289 288 289 289 291 292 292 292 292 292 293 293 294 294 294 294 294 295 295 295 295 295 295 294 293 293 293 291 290 290 289 288
263 263 263 263 263 263 263 263 263 263 263 264 264 265 266 266 267 268 269 269 269 269 269 270 270 270 271 272 272 272 273 272 273 273 273 273 274 274 275 275 276 276 277 277 278 279 279 280 281 282 281 281 284 285 285 285 286 287 288 288 288 289 289 288 288 288 287 288 289 291 291 291 291 291 292 293 293 293 293 293 293 293 294 294 295 295 295 294 292 292 292 291 289 289 288 286 286
264 264 264 264 264 264 264 264 264 264 264 264 265 265 266 266 267 268 268 269 269 269 269 269 270 270 271 271 272 272 272 272 273 273 273 273 274 274 275 275 276 276 277 278 278 279 279 280 280 281 281 282 283 283 284 285 286 287 287 287 287 287 287 286 286 287 287 288 289 289 289 290 291 291 292 292 292 292 292 293 293 294 294 294 295 295 293 291 290 291 290 288 287 287 286 285 285
264 264 264 265 265 265 265 265 265 265 265 265 266 266 266 266 267 267 268 269 269 269 269 269 270 270 270 271 271 271 272 272 272 272 272 273 274 274 275 275 276 277 277 278 278 278 279 279 280 281 281 282 281 281 283 284 285 286 286 285 285 284 284 284 285 286 287 287 287 288 288 289 290 291 292 291 291 291 292 292 293 294 294 295 294 292 290 288 289 289 288 287 286 286 285 284 283
264 264 265 265 265 265 265 265 265 265 266 266 267 267 267 267 266 267 267 268 269 269 269 269 269 269 269 270 270 271 271 271 271 272 273 273 274 274 275 275 276 277 277 277 277 278 278 279 279 280 280 280 280 281 283 283 283 283 283 283 284 283 283 284 285 286 286 286 287 288 288 289 290 291 290 290 290 290 290 291 291 293 294 294 293 290 289 288 288 287 285 285 284 284 284 283 281
263 264 264 264 264 265 265 265 265 265 266 267 267 267 267 267 266 266 267 268 268 268 269 269 268 268 268 269 269 270 270 271 271 272 273 273 274 274 275 275 276 276 276 276 276 277 278 278 279 279 280 280 280 281 281 281 281 280 280 282 282 283 284 284 285 285 285 286 287 287 288 289 290 291 289 289 290 290 290 290 290 291 292 291 289 288 288 288 288 287 284 283 283 282 282 281 279
263 263 263 263 263 264 264 264 265 265 266 267 267 267 266 266 266 266 266 266 267 267 268 268 268 268 268 268 268 269 270 271 271 272 273 273 274 274 275 275 275 275 275 275 276 277 277 278 279 279 280 280 280 279 278 278 279 280 280 281 282 283 284 283 283 283 284 286 286 286 287 288 291 290 287 289 289 288 289 287 287 287 287 286 286 288 288 287 287 287 284 282 282 280 279 277 274
262 262 263 263 263 263 263 264 264 265 265 265 265 265 265 265 264 264 264 265 265 266 266 267 267 267 267 267 268 268 269 270 271 272 273 273 274 274 274 273 274 274 275 275 276 276 277 278 279 279 279 280 279 278 278 278 278 279 279 281 283 283 281 281 281 281 284 284 284 286 288 291 292 286 286 287 284 285 286 284 284 283 283 284 285 288 287 285 284 285 284 283 281 278 276 274 270
262 262 262 262 262 262 263 263 263 264 264 264 264 263 263 263 263 263 263 263 263 264 265 266 266 267 267 268 268 269 269 270 271 271 272 272 272 272 272 273 273 274 275 275 276 276 277 278 278 279 279 279 278 277 277 278 279 279 280 282 280 276 276 276 276 281 283 282 284 287 287 289 284 280 283 283 281 284 284 281 282 282 282 284 287 287 285 283 283 284 284 281 278 276 274 271 267
262 262 262 262 262 262 262 262 263 263 263 262 262 262 262 262 263 262 262 262 263 263 264 265 266 267 267 268 269 269 270 270 270 270 271 271 271 271 272 273 274 274 275 275 276 276 277 278 278 278 278 277 277 277 277 278 280 280 281 279 273 272 274 273 275 279 279 277 283 285 281 278 274 276 279 278 280 282 281 280 281 281 282 286 287 284 282 282 283 282 280 279 278 276 273 269 265
261 261 261 261 261 262 262 262 262 262 262 261 261 261 262 262 262 262 262 262 262 262 263 264 266 267 268 268 269 269 269 269 269 269 270 270 271 272 272 273 274 274 274 275 276 277 278 278 278 277 276 276 276 277 277 278 279 279 277 273 272 275 274 273 276 277 275 277 279 279 277 272 271 277 277 275 278 279 277 277 278 279 282 284 281 279 282 281 278 276 276 277 276 273 270 267 263
261 261 261 261 261 262 262 262 262 262 262 261 261 261 262 262 262 262 262 262 262 262 263 263 265 267 267 268 268 268 268 268 269 269 270 270 271 272 272 273 273 273 274 275 276 277 278 277 276 276 276 276 276 277 278 278 276 274 273 274 275 276 274 275 276 276 277 278 278 276 275 272 273 278 277 276 277 276 276 276 277 278 279 279 278 279 277 272 271 274 274 274 273 270 267 264 261
261 261 261 261 262 262 262 262 262 262 262 262 262 262 262 262 262 262 262 261 261 261 262 262 263 265 265 266 266 266 267 268 269 269 269 270 270 271 272 272 272 273 274 275 276 277 276 276 275 275 276 276 277 277 277 277 275 274 275 276 276 275 276 276 275 276 277 277 279 279 276 274 275 277 276 277 277 277 277 276 277 277 277 276 274 272 265 264 269 271 271 270 269 267 263 260 258
262 262 262 261 261 261 261 261 261 261 261 261 261 261 261 261 261 261 261 261 261 261 261 261 262 263 263 264 265 265 266 268 269 268 269 269 270 270 271 271 272 273 274 275 276 275 275 274 275 275 276 276 277 277 277 276 276 276 275 275 275 275 275 275 275 276 276 277 280 281 279 275 274 277 278 277 277 277 276 276 277 279 277 273 270 266 262 264 266 267 266 265 264 262 259 257 254
262 262 262 261 261 261 260 260 260 260 260 260 260 260 260 260 260 261 261 261 261 261 261 261 261 261 262 263 264 264 265 266 267 268 268 269 270 270 270 271 271 273 274 274 274 274 274 274 275 275 276 276 276 276 276 276 275 275 274 274 274 274 274 275 275 275 275 275 275 276 276 273 274 278 278 277 278 277 275 276 277 276 273 270 268 265 262 261 262 263 263 262 261 259 257 254 250
263 262 261 261 260 260 260 260 260 260 260 260 260 260 260 260 260 260 260 260 260 260 260 261 261 261 261 262 262 263 264 265 266 267 268 269 269 269 269 270 272 273 273 273 272 273 274 274 275 275 275 275 275 275 275 275 274 274 274 274 274 274 274 274 275 275 274 272 270 270 269 271 275 277 276 277 277 276 275 275 273 270 267 265 263 260 254 251 254 259 262 262 264 262 257 251 246
262 261 261 260 260 260 260 260 260 260 260 260 260 260 260 260 259 260 260 260 260 260 260 260 261 261 261 261 261 262 263 264 265 266 267 267 268 268 270 271 272 272 271 271 272 273 273 274 274 274 274 274 274 274 274 274 274 274 274 274 275 275 274 274 275 275 274 273 271 268 266 269 273 274 275 274 273 273 273 271 269 266 263 260 256 248 238 239 248 253 258 261 265 265 258 252 245
261 261 260 260 260 260 260 260 260 260 260 260 260 260 259 259 259 259 259 260 260 260 260 260 260 260 261 261 261 262 263 263 264 265 265 266 267 269 270 271 271 270 270 271 271 272 273 273 273 273 273 274 274 274 274 274 274 274 275 275 275 275 275 275 276 275 275 274 272 269 268 269 271 272 272 271 271 271 269 266 262 260 257 253 246 235 226 233 244 248 251 254 257 259 256 253 248
261 261 261 261 260 260 260 260 260 260 260 260 260 259 259 259 259 259 259 260 260 260 260 260 261 261 261 261 261 262 262 263 264 265 266 267 268 269 270 269 269 270 270 271 271 271 272 272 272 273 273 273 274 274 274 274 274 274 275 275 275 275 275 275 276 275 275 274 272 270 269 269 269 268 269 270 269 266 262 258 255 254 252 246 236 227 223 228 238 245 247 248 250 251 252 252 249
263 262 262 261 261 260 260 260 259 259 259 260 260 259 259 260 259 259 259 260 260 260 261 261 261 261 261 261 262 262 262 263 264 265 266 267 267 268 268 268 269 270 270 270 271 271 271 271 272 272 273 273 273 274 274 274 274 274 274 275 275 275 275 275 274 274 273 273 272 270 269 268 267 266 267 266 262 258 254 250 248 245 242 239 231 225 223 227 235 242 244 246 247 248 249 252 252
264 263 262 262 261 260 259 259 258 258 259 259 259 260 260 260 260 260 260 260 260 260 260 260 260 260 260 260 261 262 263 263 264 264 265 266 266 267 268 268 269 269 269 270 270 270 271 271 272 272 273 273 273 274 274 274 274 274 274 274 274 273 273 273 273 272 271 270 269 268 267 265 264 264 262 259 254 248 247 245 240 233 233 235 231 227 225 228 233 237 240 243 244 245 247 249 250
265 264 263 262 261 259 258 257 257 257 258 258 259 260 260 260 261 261 261 260 260 260 260 260 259 260 260 260 261 261 262 263 263 264 265 266 267 267 267 268 268 268 268 269 269 270 271 271 272 272 272 272 272 273 273 273 273 272 272 272 272 271 271 271 270 270 269 268 267 266 265 264 262 260 257 253 247 243 244 242 236 229 227 229 230 228 226 227 231 233 235 237 240 243 244 244 244
264 263 262 261 261 259 257 257 257 256 257 257 259 261 261 262 262 261 261 261 261 260 260 260 259 259 260 260 261 262 263 263 264 265 266 267 267 267 267 267 267 267 268 269 270 270 271 271 271 271 271 271 270 270 270 271 271 270 270 270 270 269 269 268 268 268 267 266 265 264 263 261 258 256 253 250 244 241 240 238 237 231 225 225 227 227 226 226 227 227 229 232 238 241 241 242 243
263 262 261 261 260 259 258 257 257 256 256 256 258 260 262 263 263 262 261 261 261 261 261 260 260 260 261 262 262 263 264 265 265 266 267 267 267 267 267 267 268 268 269 269 270 270 270 270 270 269 269 269 269 268 268 267 268 268 268 267 267 267 266 266 265 265 264 264 263 262 260 259 256 253 250 247 243 239 236 234 233 230 226 225 224 225 227 227 226 224 223 225 232 237 239 241 243
261 261 261 260 259 259 259 258 257 257 256 257 258 260 261 261 262 261 260 260 261 262 262 261 261 262 263 263 263 264 264 265 265 266 267 267 267 266 266 267 267 268 269 269 269 270 270 269 268 267 267 267 267 266 266 265 264 264 264 264 264 264 264 264 264 263 263 262 261 260 258 256 254 250 247 245 242 239 235 232 231 229 227 225 224 223 225 227 226 224 220 219 223 228 232 236 239
260 259 259 258 258 258 258 258 257 258 258 258 258 258 259 259 260 260 259 259 260 261 263 263 262 263 263 263 263 263 264 265 266 266 266 266 266 266 266 266 267 267 268 268 269 268 268 267 266 266 265 264 264 265 265 264 263 262 261 261 261 262 262 263 263 262 262 260 258 257 255 253 251 248 245 242 241 239 236 233 232 233 230 227 227 224 224 226 226 224 220 217 218 221 225 230 233
258 258 258 258 258 258 258 258 258 258 258 258 258 257 258 258 259 259 259 258 259 260 262 264 264 264 264 264 264 265 266 267 267 266 267 267 267 267 266 266 266 267 268 267 267 266 266 265 265 264 264 263 263 263 264 263 262 261 260 260 260 260 261 261 261 261 260 258 256 254 252 250 249 247 244 242 241 240 238 236 234 235 234 231 231 229 227 227 227 225 221 219 218 217 219 226 229
258 258 258 258 258 259 259 259 259 259 258 258 257 257 257 258 258 258 258 258 258 259 260 263 265 266 266 267 267 268 269 269 268 268 268 268 268 268 267 267 267 267 267 267 266 266 265 265 264 264 264 264 264 263 263 263 262 261 260 260 260 260 260 260 260 259 258 257 255 253 251 249 247 245 244 242 241 240 239 238 236 236 236 234 234 232 229 228 228 226 223 220 217 214 215 222 227
259 259 259 259 259 259 259 260 260 259 259 258 257 257 257 257 257 258 259 259 260 259 259 261 264 266 268 269 270 270 269 269 270 270 269 269 269 269 269 269 268 267 266 266 266 266 266 265 264 263 264 265 266 265 264 263 262 262 261 260 260 259 258 258 257 256 255 254 253 252 250 248 246 244 242 241 241 241 240 239 237 236 235 235 235 233 230 228 227 226 225 221 217 218 217 217 223
259 259 259 259 259 259 259 260 260 259 259 259 258 258 257 257 258 259 260 261 260 260 260 260 262 265 267 269 270 270 270 270 270 269 269 269 270 270 270 270 268 267 266 267 268 267 266 265 264 263 263 264 266 267 266 266 264 262 261 260 259 258 257 255 254 253 253 252 251 250 249 248 245 243 241 240 240 240 240 239 237 236 235 234 234 233 231 229 227 226 226 221 219 221 219 214 219
259 259 259 259 259 259 259 258 258 258 259 259 259 259 259 259 259 260 260 260 259 259 259 259 260 263 265 266 267 268 269 269 269 269 269 270 270 270 270 269 268 267 267 267 269 267 266 265 264 263 263 263 263 265 266 266 265 263 261 259 257 256 254 253 253 252 251 251 250 250 249 247 244 241 238 238 239 240 239 238 237 235 234 233 232 232 232 230 228 225 224 221 219 220 218 215 218
259 258 259 259 259 259 259 258 257 257 257 258 258 258 259 258 259 259 259 258 258 257 258 259 259 260 261 262 263 264 265 266 267 269 269 269 269 268 268 268 268 268 268 267 264 263 264 265 264 264 262 261 261 262 263 263 263 263 261 259 257 255 253 251 251 250 250 249 248 248 248 247 244 240 237 237 238 239 239 238 237 235 234 233 231 230 230 230 228 225 223 219 217 217 217 217 219
259 259 259 259 259 259 259 259 258 257 257 257 256 257 258 257 258 258 258 259 258 257 257 258 258 258 258 259 260 262 263 264 265 266 266 266 266 266 265 265 265 267 267 266 261 259 261 261 261 262 261 260 260 260 259 260 260 261 260 259 258 256 254 252 250 249 248 247 246 247 247 246 244 241 239 238 239 239 239 238 237 236 235 233 231 230 229 228 227 226 223 218 214 213 213 217 220
259 259 260 260 259 259 259 259 259 258 257 256 255 257 257 257 257 257 257 258 259 259 258 257 257 257 257 258 259 261 262 262 263 263 264 264 264 264 264 264 264 265 266 265 261 258 257 256 255 256 257 258 258 258 257 257 257 258 258 258 257 256 255 253 251 249 248 247 246 246 245 244 244 243 243 242 241 240 239 238 238 237 236 234 232 230 229 228 227 226 224 220 215 210 211 215 217
259 259 259 259 259 259 258 258 258 258 258 257 257 257 258 259 259 259 259 258 259 260 259 259 258 258 258 259 260 260 261 262 263 263 263 263 262 263 263 264 265 265 266 266 262 258 256 255 253 251 251 252 254 256 257 256 256 255 255 256 256 255 255 254 253 252 251 250 248 246 244 244 243 244 244 244 243 241 239 239 239 239 238 236 235 232 231 229 228 226 225 224 219 212 211 214 213
259 260 259 259 259 259 258 258 258 258 258 259 259 259 260 261 261 261 260 258 258 258 258 259 259 259 259 260 260 261 261 262 263 263 263 263 262 261 262 264 265 265 265 266 263 259 259 258 256 253 251 250 250 253 256 257 257 256 255 255 254 255 255 255 255 254 253 252 250 248 245 244 244 244 244 244 244 242 240 239 239 240 239 238 237 235 233 231 229 228 227 227 223 216 212 213 214
259 259 259 259 259 259 260 260 259 259 259 259 260 261 261 262 262 263 262 260 259 259 258 258 259 260 260 260 260 261 261 262 263 263 264 264 263 263 263 264 264 265 265 265 264 261 260 259 258 257 255 253 251 250 252 254 256 256 256 257 256 256 256 255 255 254 253 251 250 249 246 244 244 244 244 244 243 242 240 239 239 241 241 240 239 238 236 234 231 230 229 229 228 221 216 215 216
258 258 258 258 259 258 259 259 260 260 260 259 260 261 261 262 262 263 264 263 262 261 260 259 259 260 261 261 261 261 262 262 262 263 264 264 265 265 264 264 264 264 263 263 263 261 260 259 258 257 257 255 253 251 250 251 252 252 253 254 255 256 256 256 255 254 253 252 251 249 247 245 244 243 244 244 243 242 240 239 239 240 241 241 241 240 238 236 234 232 231 231 231 228 223 218 217
258 258 258 258 258 258 258 258 259 260 260 259 260 260 260 261 261 262 264 265 264 262 261 260 260 260 260 261 261 261 261 262 262 263 264 265 266 266 265 265 264 263 262 262 261 260 258 257 257 256 255 254 252 251 250 249 249 249 249 249 251 252 253 254 255 255 254 253 252 251 249 247 245 243 243 243 243 242 241 239 239 239 240 241 241 241 240 238 236 235 233 233 233 232 229 225 223
256 257 258 258 259 259 258 258 259 259 260 259 259 260 260 260 260 261 262 263 264 263 262 261 261 260 260 260 260 260 260 260 260 261 262 263 264 265 266 265 265 264 263 262 261 260 258 256 255 255 254 253 252 251 250 250 249 249 248 248 248 249 250 251 253 254 254 254 253 252 251 249 248 246 244 243 243 242 241 240 239 239 239 240 241 242 241 240 239 237 235 234 234 234 233 231 230
256 256 257 258 258 258 258 259 259 259 259 259 259 260 260 259 260 260 261 262 263 264 263 263 262 261 260 260 259 259 258 258 258 258 259 260 261 262 263 264 264 264 264 263 263 262 261 259 256 255 254 253 253 252 251 251 250 249 248 248 247 247 248 249 250 252 253 253 253 253 252 252 251 249 247 245 244 243 242 240 239 239 239 240 240 241 241 241 240 239 237 236 235 235 234 233 232
257 256 257 257 257 258 258 258 258 258 259 259 259 259 259 259 259 260 260 261 262 263 264 264 264 263 262 261 261 260 259 258 258 258 258 258 259 260 260 261 262 263 263 264 263 263 262 261 260 258 256 255 255 254 253 252 251 250 249 248 247 247 247 248 249 250 250 251 251 252 252 252 251 251 250 249 247 245 243 242 241 240 240 240 240 240 241 241 241 240 239 238 237 236 236 235 234
258 258 257 257 258 259 259 257 258 258 259 260 259 259 259 259 259 259 259 259 260 261 262 263 264 264 263 263 262 261 261 260 259 259 259 259 259 259 260 260 261 261 262 263 263 263 263 263 262 261 260 258 257 256 255 255 253 252 250 249 248 248 247 247 247 248 248 249 249 249 250 250 250 251 251 251 249 248 246 244 243 242 241 240 240 240 240 241 241 241 240 240 239 239 238 238 237
260 259 258 259 259 259 260 259 259 259 259 260 260 260 260 260 259 259 258 259 259 260 261 262 262 263 263 263 263 262 261 261 260 260 260 259 259 260 260 261 261 261 261 261 261 262 262 262 262 261 261 260 260 258 257 257 256 255 252 251 250 250 249 248 248 248 248 248 248 248 248 249 249 249 249 250 250 250 249 247 245 244 243 242 241 241 241 241 241 241 241 240 240 240 240 240 239
261 261 260 260 259 259 260 260 260 260 260 260 260 260 261 261 260 259 258 258 259 260 261 261 262 262 262 262 262 262 262 261 261 260 260 260 260 260 260 261 261 262 262 262 261 261 261 261 261 260 260 260 261 260 260 258 258 257 256 254 252 251 250 250 249 249 248 248 248 248 248 248 248 248 248 248 249 249 249 249 247 246 245 244 243 243 242 242 241 241 241 241 240 240 241 241 241
263 263 263 262 262 262 262 261 261 261 261 260 260 261 261 261 260 260 260 259 259 259 260 260 261 261 261 261 261 261 261 261 261 261 260 260 260 260 260 260 260 261 261 262 262 261 261 260 260 259 259 259 260 260 260 259 258 257 257 256 254 253 252 251 251 251 250 250 249 249 248 248 248 248 248 247 248 248 248 248 248 247 246 246 245 245 244 244 243 242 241 241 241 241 240 241 241
263 263 263 263 263 264 264 264 263 263 262 262 261 261 262 262 261 262 262 260 259 259 259 259 260 260 260 260 260 260 260 260 260 260 260 260 259 259 260 260 260 260 261 261 261 261 261 260 260 259 259 259 259 259 259 259 258 257 256 256 256 255 254 253 252 252 252 251 250 250 249 249 248 248 248 247 247 248 248 248 247 247 247 246 246 246 246 246 245 243 242 241 241 241 241 241 241
264 263 263 263 263 263 263 264 264 264 263 263 262 260 260 262 262 262 262 262 260 259 259 259 260 260 260 261 260 260 260 260 260 259 259 259 259 259 259 259 260 260 261 261 262 262 262 261 261 262 261 260 259 258 258 258 258 257 256 256 256 256 255 254 253 253 253 252 251 251 251 250 250 249 248 247 247 247 248 248 247 247 247 246 246 246 246 247 246 245 244 243 242 242 242 242 242